EZY95GY EGMC-LEIB

Flight info

Callsign EZY95GY
Flight time N/A
Altitude 33000
Route DET M604 LYD UM189 WAFFU DCT SITET/N0454F350 UN859 SOPIL DCT BALAN DCT EVPOK DCT NARAK DCT GAI DCT LOMRA DCT ROCAN DCT PUMAL N859 BCN Z174 CORDA
Aircraft A20N/M-SDE2E3FGHIRWXY/LB1

Departure

Time 2026-05-06 17:04
Airport London Southend Airport (EGMC)

Arrival

Time N/A
Airport Ibiza Airport (LEIB)
Time Latitude Longitude Altitude Speed Heading
2026-05-06 16:32 51.56966 0.70279 57 ft 0 kts 93°
2026-05-06 16:47 51.56966 0.70270 57 ft 3 kts 95°
2026-05-06 16:47 51.56971 0.70235 53 ft 3 kts 120°
2026-05-06 16:47 51.56984 0.70211 55 ft 3 kts 160°
2026-05-06 16:48 51.57000 0.70207 57 ft 1 kts 188°
2026-05-06 16:48 51.57003 0.70208 57 ft 0 kts 188°
2026-05-06 16:50 51.57000 0.70207 57 ft 0 kts 188°
2026-05-06 16:58 51.56958 0.70201 56 ft 4 kts 175°
2026-05-06 16:58 51.56931 0.70188 54 ft 8 kts 210°
2026-05-06 16:59 51.56881 0.70092 57 ft 17 kts 246°
2026-05-06 16:59 51.56890 0.69890 57 ft 17 kts 276°
2026-05-06 16:59 51.56905 0.69734 57 ft 11 kts 275°
2026-05-06 16:59 51.56916 0.69633 53 ft 9 kts 282°
2026-05-06 17:00 51.56920 0.69556 57 ft 4 kts 266°
2026-05-06 17:00 51.56916 0.69514 57 ft 4 kts 261°
2026-05-06 17:00 51.56908 0.69437 55 ft 10 kts 261°
2026-05-06 17:00 51.56895 0.69303 54 ft 12 kts 245°
2026-05-06 17:01 51.56859 0.69198 57 ft 10 kts 237°
2026-05-06 17:01 51.56838 0.69121 52 ft 5 kts 282°
2026-05-06 17:01 51.56888 0.69043 56 ft 8 kts 316°
2026-05-06 17:01 51.56872 0.68942 57 ft 19 kts 235°
2026-05-06 17:02 51.56782 0.68748 55 ft 22 kts 235°
2026-05-06 17:02 51.56692 0.68549 53 ft 22 kts 233°
2026-05-06 17:02 51.56601 0.68349 57 ft 21 kts 233°
2026-05-06 17:02 51.56525 0.68239 57 ft 9 kts 208°
2026-05-06 17:03 51.56513 0.68213 54 ft 1 kts 264°
2026-05-06 17:03 51.56520 0.68207 56 ft 1 kts 345°
2026-05-06 17:03 51.56535 0.68217 52 ft 1 kts 32°
2026-05-06 17:03 51.56560 0.68257 56 ft 13 kts 52°
2026-05-06 17:04 51.56726 0.68644 59 ft 78 kts 51°
2026-05-06 17:04 51.57206 0.69693 94 ft 149 kts 56°
2026-05-06 17:04 51.57839 0.71112 829 ft 160 kts 54°
2026-05-06 17:04 51.58458 0.72679 1602 ft 175 kts 70°
2026-05-06 17:05 51.58322 0.74621 2294 ft 192 kts 119°
2026-05-06 17:05 51.57189 0.75860 2858 ft 212 kts 165°
2026-05-06 17:05 51.55688 0.75523 3324 ft 231 kts 205°
2026-05-06 17:05 51.54319 0.73919 3653 ft 260 kts 225°
2026-05-06 17:06 51.53100 0.71666 4394 ft 272 kts 232°
2026-05-06 17:06 51.51793 0.69463 5371 ft 272 kts 216°
2026-05-06 17:06 51.50157 0.67943 6373 ft 274 kts 204°
2026-05-06 17:06 51.48355 0.66878 7220 ft 278 kts 197°
2026-05-06 17:07 51.46473 0.66078 8073 ft 283 kts 193°
2026-05-06 17:07 51.44540 0.65379 8975 ft 286 kts 192°
2026-05-06 17:07 51.42585 0.64688 9919 ft 289 kts 193°
2026-05-06 17:07 51.40590 0.63953 10488 ft 304 kts 193°
2026-05-06 17:08 51.38459 0.63123 10836 ft 326 kts 194°
2026-05-06 17:08 51.36195 0.62324 11462 ft 334 kts 189°
2026-05-06 17:08 51.33912 0.61999 12354 ft 336 kts 180°
2026-05-06 17:08 51.31481 0.61811 12765 ft 356 kts 187°
2026-05-06 17:09 51.29024 0.61011 13220 ft 372 kts 194°
2026-05-06 17:09 51.26496 0.59998 13934 ft 379 kts 192°
2026-05-06 17:09 51.23856 0.59814 14613 ft 383 kts 170°
2026-05-06 17:09 51.21357 0.61234 15359 ft 385 kts 149°
2026-05-06 17:10 51.19328 0.64016 16115 ft 388 kts 130°
2026-05-06 17:10 51.17669 0.67430 16843 ft 392 kts 127°
2026-05-06 17:10 51.15953 0.70826 17563 ft 396 kts 131°
2026-05-06 17:10 51.14004 0.73961 18270 ft 400 kts 138°
2026-05-06 17:11 51.11837 0.76752 18869 ft 403 kts 144°
2026-05-06 17:11 51.09500 0.79250 19489 ft 406 kts 149°
2026-05-06 17:11 51.06954 0.81217 20118 ft 408 kts 159°
2026-05-06 17:11 51.04227 0.82461 20767 ft 409 kts 169°
2026-05-06 17:12 51.01384 0.82902 21465 ft 410 kts 180°
2026-05-06 17:12 50.98541 0.82500 22086 ft 412 kts 191°
2026-05-06 17:12 50.95776 0.81233 22687 ft 415 kts 201°
2026-05-06 17:12 50.93199 0.79137 23180 ft 421 kts 212°
2026-05-06 17:13 50.90791 0.76452 23720 ft 424 kts 216°
2026-05-06 17:13 50.88472 0.73565 24233 ft 426 kts 218°
2026-05-06 17:13 50.86177 0.70570 24638 ft 429 kts 219°
2026-05-06 17:13 50.83881 0.67537 25083 ft 432 kts 219°
2026-05-06 17:14 50.81563 0.64494 25548 ft 434 kts 218°
2026-05-06 17:14 50.79221 0.61454 25970 ft 437 kts 218°
2026-05-06 17:14 50.76855 0.58418 26395 ft 439 kts 218°
2026-05-06 17:14 50.74469 0.55385 26820 ft 441 kts 218°
2026-05-06 17:15 50.72066 0.52346 27236 ft 444 kts 218°
2026-05-06 17:15 50.69648 0.49298 27644 ft 446 kts 217°
2026-05-06 17:15 50.67217 0.46240 28057 ft 448 kts 217°
2026-05-06 17:15 50.64778 0.43175 28525 ft 448 kts 217°
2026-05-06 17:16 50.62340 0.40114 29022 ft 448 kts 217°
2026-05-06 17:16 50.59921 0.37142 29558 ft 446 kts 214°
2026-05-06 17:16 50.57318 0.34540 30111 ft 442 kts 207°
2026-05-06 17:16 50.54595 0.32313 30557 ft 440 kts 205°
2026-05-06 17:17 50.51845 0.30208 30972 ft 439 kts 205°
2026-05-06 17:17 50.49081 0.28174 31377 ft 438 kts 204°
2026-05-06 17:17 50.46313 0.26174 31776 ft 437 kts 204°
2026-05-06 17:17 50.43550 0.24190 32171 ft 436 kts 204°
2026-05-06 17:18 50.40795 0.22209 32573 ft 435 kts 204°
2026-05-06 17:18 50.38010 0.20202 32910 ft 436 kts 204°
2026-05-06 17:18 50.35289 0.18237 32970 ft 436 kts 204°
2026-05-06 17:19 50.29791 0.14258 32976 ft 435 kts 204°
2026-05-06 17:19 50.24297 0.10286 32966 ft 435 kts 204°
2026-05-06 17:20 50.18799 0.06322 32977 ft 435 kts 204°
2026-05-06 17:20 50.13209 0.02797 32963 ft 433 kts 195°
2026-05-06 17:21 50.07247 0.01684 32966 ft 433 kts 177°
2026-05-06 17:21 50.01307 0.03251 32968 ft 435 kts 167°
2026-05-06 17:22 49.95443 0.05573 32973 ft 435 kts 166°
2026-05-06 17:22 49.89596 0.07976 32962 ft 435 kts 166°
2026-05-06 17:23 49.83735 0.10322 32982 ft 436 kts 166°
2026-05-06 17:23 49.78858 0.12237 32974 ft 435 kts 167°
2026-05-06 17:24 49.72982 0.14525 32982 ft 435 kts 166°
2026-05-06 17:24 49.67113 0.16813 32988 ft 436 kts 166°
2026-05-06 17:25 49.61234 0.19172 32990 ft 436 kts 166°
2026-05-06 17:25 49.55367 0.21544 32993 ft 436 kts 166°
2026-05-06 17:26 49.49500 0.23907 32994 ft 436 kts 166°
2026-05-06 17:26 49.43626 0.26261 32966 ft 436 kts 166°
2026-05-06 17:27 49.37755 0.28606 32967 ft 436 kts 166°
2026-05-06 17:27 49.31874 0.30950 32967 ft 436 kts 166°
2026-05-06 17:28 49.26012 0.33371 32964 ft 437 kts 165°
2026-05-06 17:28 49.20151 0.35854 32955 ft 438 kts 165°
2026-05-06 17:29 49.14318 0.38322 32958 ft 438 kts 165°
2026-05-06 17:29 49.08445 0.40790 33039 ft 437 kts 165°
2026-05-06 17:30 49.02494 0.43280 32960 ft 452 kts 165°
2026-05-06 17:30 48.96336 0.45849 32957 ft 462 kts 165°
2026-05-06 17:31 48.90129 0.48432 32955 ft 462 kts 165°
2026-05-06 17:31 48.83919 0.51010 32956 ft 463 kts 165°
2026-05-06 17:32 48.77710 0.53567 32952 ft 461 kts 165°
2026-05-06 17:32 48.71501 0.56020 32953 ft 462 kts 166°
2026-05-06 17:33 48.65275 0.58442 32948 ft 463 kts 166°
2026-05-06 17:33 48.59040 0.60868 32949 ft 462 kts 166°
2026-05-06 17:34 48.52824 0.63288 32949 ft 461 kts 166°
2026-05-06 17:34 48.46616 0.65777 32952 ft 462 kts 165°
2026-05-06 17:35 48.40413 0.68310 32951 ft 461 kts 165°
2026-05-06 17:35 48.34223 0.70832 32946 ft 461 kts 165°
2026-05-06 17:36 48.24934 0.74588 32947 ft 461 kts 165°
2026-05-06 17:36 48.18774 0.77027 32947 ft 461 kts 166°
2026-05-06 17:37 48.12520 0.79478 32947 ft 462 kts 166°
2026-05-06 17:37 48.06350 0.81893 32947 ft 462 kts 166°
2026-05-06 17:38 48.00136 0.84323 32946 ft 462 kts 166°
2026-05-06 17:38 47.93921 0.86748 32941 ft 462 kts 166°
2026-05-06 17:39 47.87693 0.89174 32939 ft 463 kts 166°
2026-05-06 17:39 47.81461 0.91594 32941 ft 463 kts 166°
2026-05-06 17:40 47.75228 0.94008 32934 ft 463 kts 166°
2026-05-06 17:40 47.68992 0.96418 32936 ft 464 kts 166°
2026-05-06 17:41 47.62748 0.98824 32936 ft 464 kts 166°
2026-05-06 17:41 47.56500 1.01226 32930 ft 464 kts 166°
2026-05-06 17:42 47.50249 1.03624 32930 ft 464 kts 166°
2026-05-06 17:42 47.43976 1.05845 32933 ft 464 kts 172°
2026-05-06 17:43 47.37546 1.06358 32936 ft 463 kts 180°
2026-05-06 17:43 47.31099 1.06263 32937 ft 463 kts 182°
2026-05-06 17:44 47.24652 1.06055 32939 ft 463 kts 182°
2026-05-06 17:44 47.18253 1.05868 32940 ft 463 kts 182°
2026-05-06 17:45 47.11803 1.05708 32937 ft 464 kts 181°
2026-05-06 17:45 47.05349 1.05558 32937 ft 464 kts 181°
2026-05-06 17:46 46.98896 1.05365 32938 ft 464 kts 182°
2026-05-06 17:46 46.92451 1.05086 32935 ft 464 kts 182°
2026-05-06 17:47 46.85999 1.04795 32938 ft 464 kts 182°
2026-05-06 17:47 46.79543 1.04513 32938 ft 464 kts 182°
2026-05-06 17:48 46.73096 1.04237 32935 ft 464 kts 182°
2026-05-06 17:48 46.66639 1.03964 32936 ft 464 kts 182°
2026-05-06 17:49 46.60185 1.03691 32935 ft 464 kts 182°
2026-05-06 17:49 46.53733 1.03471 32933 ft 465 kts 179°
2026-05-06 17:50 46.47321 1.04757 32933 ft 466 kts 169°
2026-05-06 17:50 46.40976 1.06786 32933 ft 467 kts 167°
2026-05-06 17:51 46.34659 1.08947 32931 ft 467 kts 167°
2026-05-06 17:51 46.28324 1.11098 32927 ft 468 kts 167°
2026-05-06 17:52 46.21982 1.13217 32927 ft 468 kts 167°
2026-05-06 17:52 46.15641 1.15319 32914 ft 468 kts 168°
2026-05-06 17:53 46.09289 1.17417 32916 ft 468 kts 168°
2026-05-06 17:53 46.02991 1.19494 32917 ft 467 kts 168°
2026-05-06 17:54 45.96676 1.21572 32911 ft 464 kts 168°
2026-05-06 17:54 45.90350 1.23651 32910 ft 463 kts 168°
2026-05-06 17:55 45.84112 1.25694 32911 ft 463 kts 168°
2026-05-06 17:55 45.77831 1.27746 32911 ft 463 kts 168°
2026-05-06 17:56 45.71548 1.29795 32909 ft 463 kts 168°
2026-05-06 17:56 45.65262 1.31840 32908 ft 464 kts 168°
2026-05-06 17:57 45.58968 1.33883 32905 ft 464 kts 168°
2026-05-06 17:57 45.52670 1.35922 32906 ft 464 kts 168°
2026-05-06 17:58 45.46363 1.37960 32905 ft 465 kts 168°
2026-05-06 17:58 45.40058 1.39992 32909 ft 465 kts 168°
2026-05-06 17:59 45.33749 1.42021 32909 ft 464 kts 169°
2026-05-06 17:59 45.27451 1.44042 32910 ft 464 kts 169°
2026-05-06 18:00 45.21143 1.46061 32911 ft 464 kts 169°
2026-05-06 18:00 45.14846 1.48073 32911 ft 464 kts 169°
2026-05-06 18:01 45.08551 1.50079 32911 ft 463 kts 169°
2026-05-06 18:01 45.02264 1.52078 32911 ft 463 kts 169°
2026-05-06 18:02 44.95972 1.54075 32917 ft 464 kts 169°
2026-05-06 18:02 44.89667 1.56070 32920 ft 465 kts 169°
2026-05-06 18:03 44.83358 1.58062 32918 ft 464 kts 169°
2026-05-06 18:03 44.77055 1.60048 32919 ft 464 kts 169°
2026-05-06 18:04 44.70744 1.62033 32924 ft 465 kts 169°
2026-05-06 18:04 44.64432 1.64013 32935 ft 464 kts 169°
2026-05-06 18:05 44.58164 1.65975 32921 ft 464 kts 169°
2026-05-06 18:05 44.51861 1.67944 32934 ft 464 kts 169°
2026-05-06 18:06 44.45563 1.69906 32932 ft 464 kts 169°
2026-05-06 18:06 44.39270 1.71864 32932 ft 463 kts 170°
2026-05-06 18:07 44.32977 1.73815 32941 ft 463 kts 170°
2026-05-06 18:07 44.26672 1.75620 32941 ft 462 kts 173°
2026-05-06 18:08 44.20330 1.77031 32939 ft 461 kts 174°
2026-05-06 18:08 44.13991 1.78362 32946 ft 460 kts 174°
2026-05-06 18:09 44.07657 1.79722 32952 ft 460 kts 174°
2026-05-06 18:09 44.01325 1.81107 32936 ft 460 kts 174°
2026-05-06 18:10 43.95014 1.82460 32956 ft 457 kts 176°
2026-05-06 18:10 43.88697 1.83247 32962 ft 455 kts 180°
2026-05-06 18:11 43.83442 1.83684 32965 ft 455 kts 180°
2026-05-06 18:11 43.77131 1.84215 32962 ft 454 kts 180°
2026-05-06 18:12 43.70833 1.84797 32973 ft 453 kts 180°
2026-05-06 18:12 43.64538 1.85403 32972 ft 453 kts 180°
2026-05-06 18:13 43.58246 1.86014 32976 ft 453 kts 180°
2026-05-06 18:13 43.51973 1.86620 32972 ft 452 kts 180°
2026-05-06 18:14 43.45702 1.87221 32971 ft 452 kts 180°
2026-05-06 18:14 43.39431 1.87822 32957 ft 451 kts 181°
2026-05-06 18:15 43.33222 1.88416 32968 ft 450 kts 181°
2026-05-06 18:15 43.26946 1.89017 32969 ft 449 kts 181°
2026-05-06 18:16 43.20708 1.89614 32954 ft 449 kts 181°
2026-05-06 18:16 43.14513 1.90205 32975 ft 449 kts 181°
2026-05-06 18:17 43.08281 1.90797 32980 ft 449 kts 181°
2026-05-06 18:17 43.02067 1.91387 32982 ft 446 kts 181°
2026-05-06 18:18 42.95904 1.91975 32991 ft 441 kts 182°
2026-05-06 18:18 42.89788 1.92555 32985 ft 440 kts 182°
2026-05-06 18:19 42.83687 1.93129 32990 ft 440 kts 182°
2026-05-06 18:19 42.77577 1.93702 32994 ft 440 kts 182°
2026-05-06 18:20 42.71470 1.94276 32999 ft 440 kts 182°
2026-05-06 18:20 42.65362 1.94968 32986 ft 442 kts 179°
2026-05-06 18:21 42.59255 1.96157 32962 ft 444 kts 177°
2026-05-06 18:21 42.53167 1.97471 32982 ft 443 kts 177°
2026-05-06 18:22 42.47087 1.98747 32970 ft 442 kts 178°
2026-05-06 18:22 42.41008 1.99980 32964 ft 442 kts 178°
2026-05-06 18:23 42.34938 2.01097 32963 ft 438 kts 181°
2026-05-06 18:23 42.28877 2.01724 32957 ft 436 kts 183°
2026-05-06 18:24 42.22824 2.02215 32945 ft 436 kts 183°
2026-05-06 18:24 42.16809 2.02736 32923 ft 436 kts 182°
2026-05-06 18:25 42.10754 2.03296 32941 ft 436 kts 182°
2026-05-06 18:25 42.04705 2.03870 32939 ft 436 kts 182°
2026-05-06 18:26 41.98652 2.04442 32940 ft 436 kts 182°
2026-05-06 18:26 41.92598 2.05013 32936 ft 435 kts 183°
2026-05-06 18:27 41.86557 2.05582 32939 ft 435 kts 183°
2026-05-06 18:27 41.80522 2.06146 32938 ft 435 kts 183°
2026-05-06 18:28 41.74485 2.06709 32912 ft 434 kts 183°
2026-05-06 18:28 41.68463 2.07272 32943 ft 433 kts 183°
2026-05-06 18:29 41.62453 2.07833 32942 ft 433 kts 183°